Погода в Деревянске

Россия / Республика Коми     61°45′26″N   53°20′05″E
темп.,
°C
ветер,
м/с
пор.,
м/с
влажн.,
%
обл.,
%
осадки,
мм/ч
давл.,
гПа
погр.,
м
8 марта, пн
пн800:00−20вюв2210095 0.1 100535
03:00−21в2510096 0.1 100494
06:00−22в25100100 0.1 1003104
09:00−18в2596100 0.1 1002251
12:00−14всв3589100 0.0 1002485
15:00−14св3689100 0.1 1003553
18:00−18ссв2896100 0.0 1004247
21:00−21ссв279899 0.0 1005198
9 марта, вт
вт900:00−25с379777 0.0 1007192
03:00−28с279753 0.0 1009188
06:00−30с279713 0.0 1011189
09:00−28с359323 0.0 1013314
12:00−23с358975 0.0 1015472
15:00−22ссз358984 0.0 1016564
18:00−26ссз239794 0.0 101875
21:00−29ссз229851 0.0 102019
10 марта, ср
ср1000:00−30сз12990 0.0 102019
03:00−31сз22990 0.0 102119
06:00−31зсз22990 0.0 102021
09:00−25зсз24940 0.0 1020232
12:00−19зсз369041 0.0 1018412
15:00−17з489065 0.0 1016436
18:00−17зсз4129498 0.2 1014641
21:00−15зсз4119499 0.3 1013557
11 марта, чт
чт1100:00−13зсз41194100 0.3 1011562
03:00−12зсз31095100 0.6 1010466
06:00−12ссз2597100 0.5 1010129
09:00−9ссз4992100 1.2 1012800
12:00−9сз5988100 0.4 1013748
15:00−9сз51084100 0.4 1013736
18:00−12зсз4138898 0.0 1014679
21:00−13сз4128999 0.0 1014704
12 марта, пт
пт1200:00−13зсз41191100 0.0 1014587
03:00−13зсз41093100 0.0 1014603
06:00−13з41192100 0.1 1014597
09:00−11з4989100 0.1 1015670
12:00−9з5988100 0.1 1015733
15:00−9з4989100 0.1 1014674
18:00−9з41192100 0.1 1015641
21:00−9з51291100 0.1 1016634